GW5754 Weather Reports


time (UTC)temp
F
wind
direction
speed
knots
gust
knots
rain 1hr
in
rain 24hr
in
rain mn
in
humidity
%
barometer
mb
20260506184115 55 45 0.0 0.9 0.00 0.00 0.00 88 1028.0
20260506183615 55 293 2.6 2.6 0.00 0.00 0.00 88 1028.0
20260506183115 55 270 1.7 2.6 0.00 0.00 0.00 88 1028.0
20260506182615 55 315 4.3 4.3 0.00 0.00 0.00 88 1028.0
20260506182114 56 225 0.9 1.7 0.00 0.00 0.00 87 1028.0
20260506181615 55 45 0.0 0.0 0.00 0.00 0.00 88 1028.0
20260506181114 55 315 0.0 0.9 0.00 0.00 0.00 88 1028.0
20260506180615 55 225 1.7 2.6 0.00 0.00 0.00 89 1028.0
20260506180115 55 248 2.6 3.5 0.00 0.00 0.00 89 1028.0
20260506175615 55 248 0.0 1.7 0.00 0.00 0.00 89 1028.0
20260506175115 55 293 1.7 2.6 0.00 0.00 0.00 88 1028.0
20260506174614 55 158 0.0 0.9 0.00 0.00 0.00 88 1028.0
20260506174115 55 315 0.9 1.7 0.00 0.00 0.00 89 1028.0
20260506173615 55 338 0.0 0.9 0.00 0.00 0.00 89 1028.0
20260506173115 55 23 1.7 1.7 0.00 0.00 0.00 89 1028.0
20260506172615 55 270 1.7 1.7 0.00 0.00 0.00 89 1028.0
20260506172115 55 338 0.9 1.7 0.00 0.00 0.00 90 1028.0
20260506171615 54 23 0.0 0.9 0.00 0.00 0.00 90 1028.0
20260506171114 54 45 0.0 0.9 0.00 0.00 0.00 91 1028.0
20260506170615 54 203 0.0 0.9 0.00 0.00 0.00 91 1028.0
20260506170115 54 293 1.7 1.7 0.00 0.00 0.00 91 1028.0
20260506165614 54 270 1.7 1.7 0.00 0.00 0.00 91 1028.0
20260506165115 54 158 0.0 0.0 0.00 0.00 0.00 91 1028.0
20260506164615 54 293 0.9 0.9 0.00 0.00 0.00 91 1028.0
20260506164114 53 113 0.0 0.0 0.00 0.00 0.00 92 1028.0
20260506163615 53 225 1.7 1.7 0.00 0.00 0.00 92 1028.0
20260506163114 53 248 0.9 1.7 0.00 0.00 0.00 92 1028.0
20260506162614 53 68 0.9 1.7 0.00 0.00 0.00 92 1028.0
20260506162115 53 45 0.9 1.7 0.00 0.00 0.00 91 1028.0
20260506161615 53 45 0.9 1.7 0.00 0.00 0.00 92 1028.0
20260506161115 53 23 0.9 1.7 0.00 0.00 0.00 92 1028.0
20260506160615 53 113 0.0 0.0 0.00 0.00 0.00 92 1028.0
20260506160115 53 68 0.9 1.7 0.00 0.00 0.00 93 1028.0
20260506155615 53 113 0.0 0.0 0.00 0.00 0.00 93 1028.0
20260506155115 52 0 0.9 1.7 0.00 0.00 0.00 93 1028.0
20260506154615 52 293 0.9 1.7 0.00 0.00 0.00 94 1028.0
20260506154116 52 315 0.0 0.9 0.00 0.00 0.00 95 1028.0
20260506153615 52 338 0.9 1.7 0.00 0.00 0.00 95 1028.0
20260506153115 52 23 0.0 0.0 0.00 0.00 0.00 96 1028.0
20260506152615 52 293 1.7 1.7 0.00 0.00 0.00 96 1028.0
20260506152114 53 225 0.0 0.0 0.00 0.00 0.00 96 1027.0
20260506151615 52 293 1.7 1.7 0.00 0.00 0.00 95 1028.0
20260506151114 52 135 0.0 0.0 0.00 0.00 0.00 95 1027.0
20260506150615 52 135 0.0 0.0 0.00 0.00 0.00 96 1027.0
20260506150116 52 90 0.9 1.7 0.00 0.00 0.00 97 1027.0
20260506145615 52 90 0.0 0.9 0.00 0.00 0.00 97 1027.0
20260506145115 52 158 0.0 0.0 0.00 0.00 0.00 97 1027.0
20260506144615 52 90 0.0 0.9 0.00 0.00 0.00 97 1027.0
20260506144114 52 158 0.0 0.0 0.00 0.00 0.00 97 1027.0
20260506143617 52 113 0.0 0.0 0.00 0.00 0.00 97 1027.0
20260506143115 52 113 0.0 0.0 0.00 0.00 0.00 97 1028.0
20260506142616 52 0 0.0 0.0 0.00 0.00 0.00 97 1027.0
20260506142115 52 180 0.0 0.0 0.00 0.00 0.00 96 1028.0
20260506141615 52 113 0.0 0.0 0.00 0.00 0.00 97 1028.0
20260506141115 52 113 0.0 0.9 0.00 0.00 0.00 96 1028.0
20260506140615 52 45 0.9 1.7 0.00 0.00 0.00 96 1027.0
20260506140116 52 68 0.0 0.0 0.00 0.00 0.00 96 1027.0
20260506135614 52 68 0.0 0.9 0.00 0.00 0.00 96 1027.0
20260506135115 52 0 0.0 0.0 0.00 0.00 0.00 96 1027.0
20260506134616 52 248 0.9 1.7 0.00 0.00 0.00 96 1027.0
20260506134115 52 293 0.9 0.9 0.00 0.00 0.00 96 1027.0
20260506133615 52 135 0.0 0.0 0.00 0.00 0.00 96 1027.0
20260506133115 52 113 0.0 0.0 0.00 0.00 0.00 96 1027.0
20260506132614 52 68 0.0 0.0 0.00 0.00 0.00 96 1027.0
20260506132116 52 135 0.0 0.0 0.00 0.00 0.00 96 1027.0
20260506131615 52 270 0.0 0.0 0.00 0.00 0.00 96 1027.0
20260506131115 52 293 0.0 0.9 0.00 0.00 0.00 95 1027.0
20260506130616 52 203 0.0 0.0 0.00 0.00 0.00 96 1027.0
20260506130116 52 293 0.0 0.0 0.00 0.00 0.00 96 1027.0
20260506125614 52 90 0.0 0.0 0.00 0.00 0.00 96 1027.0
20260506125114 52 90 0.0 0.0 0.00 0.00 0.00 96 1027.0
20260506124614 52 90 0.0 0.0 0.00 0.00 0.00 96 1027.0
20260506124115 52 23 0.0 0.0 0.00 0.00 0.00 96 1027.0
20260506123615 52 68 0.0 0.0 0.00 0.00 0.00 96 1027.0
20260506123115 52 113 0.0 0.0 0.00 0.00 0.00 96 1027.0
20260506122614 52 113 0.0 0.0 0.00 0.00 0.00 96 1026.0
20260506122115 52 248 0.9 0.9 0.00 0.00 0.00 96 1026.0
20260506121614 52 158 0.0 0.0 0.00 0.00 0.00 96 1026.0
20260506121114 52 113 0.0 0.0 0.00 0.00 0.00 96 1026.0
20260506120614 52 68 0.0 0.0 0.00 0.00 0.00 96 1026.0
20260506120115 52 135 0.0 0.0 0.00 0.00 0.00 96 1026.0
20260506115615 52 203 0.0 0.0 0.00 0.00 0.00 96 1026.0
20260506115114 52 225 1.7 2.6 0.00 0.00 0.00 96 1026.0
20260506114615 52 248 0.9 1.7 0.00 0.00 0.00 97 1027.0
20260506114115 52 270 0.9 1.7 0.00 0.00 0.00 97 1026.0
20260506113614 52 68 0.0 0.0 0.00 0.00 0.00 97 1026.0
20260506113114 52 113 0.0 0.0 0.00 0.00 0.00 97 1026.0
20260506112614 52 90 0.0 0.0 0.00 0.00 0.00 97 1026.0
20260506112114 52 135 0.0 0.0 0.00 0.00 0.00 97 1026.0
20260506111614 52 90 0.0 0.0 0.00 0.00 0.00 97 1026.0
20260506111115 52 135 0.0 0.0 0.00 0.00 0.00 97 1026.0
20260506110615 52 90 0.0 0.0 0.00 0.00 0.00 96 1026.0
20260506110114 52 45 0.0 0.0 0.00 0.00 0.00 96 1026.0
20260506105614 52 68 0.0 0.0 0.00 0.00 0.00 96 1026.0
20260506105115 52 203 0.0 0.0 0.00 0.00 0.00 96 1026.0
20260506104614 52 113 0.0 0.0 0.00 0.00 0.00 96 1026.0
20260506104116 52 23 0.0 0.0 0.00 0.00 0.00 96 1026.0
20260506103614 52 0 0.0 0.0 0.00 0.00 0.00 96 1026.0
20260506103115 52 248 0.0 0.0 0.00 0.00 0.00 96 1026.0
20260506102616 52 135 0.0 0.0 0.00 0.00 0.00 96 1026.0
20260506102116 52 0 0.0 0.0 0.00 0.00 0.00 95 1026.0
20260506101615 52 225 0.0 0.0 0.00 0.00 0.00 95 1026.0
20260506101114 53 315 0.0 0.0 0.00 0.00 0.00 95 1026.0
20260506100614 53 293 0.0 0.9 0.00 0.00 0.00 94 1026.0
20260506100114 53 293 0.9 1.7 0.00 0.00 0.00 94 1026.0
20260506095614 53 270 0.9 1.7 0.00 0.00 0.00 93 1026.0
20260506095114 53 293 0.9 1.7 0.00 0.00 0.00 93 1026.0
20260506094614 53 293 0.9 0.9 0.00 0.00 0.00 92 1026.0
20260506094114 53 270 0.9 1.7 0.00 0.00 0.00 92 1026.0
20260506093615 54 248 1.7 1.7 0.00 0.00 0.00 91 1026.0
20260506093114 54 225 0.9 1.7 0.00 0.00 0.00 91 1026.0
20260506092614 54 270 0.0 0.0 0.00 0.00 0.00 91 1026.0
20260506091625 54 0 0.0 0.9 0.00 0.00 0.00 90 1026.0
20260506091114 54 315 0.0 0.0 0.00 0.00 0.00 90 1026.0
20260506090615 54 270 0.0 0.9 0.00 0.00 0.00 91 1026.0
20260506090114 54 270 0.9 1.7 0.00 0.00 0.00 90 1026.0
20260506085614 54 270 0.0 0.0 0.00 0.00 0.00 90 1026.0
20260506085114 54 203 0.0 0.9 0.00 0.00 0.00 90 1026.0
20260506084618 54 293 0.9 1.7 0.00 0.00 0.00 90 1025.0
20260506084114 54 270 0.0 0.0 0.00 0.00 0.00 89 1025.0
20260506083614 54 0 0.0 0.0 0.00 0.00 0.00 89 1025.0
20260506083115 54 225 0.0 0.9 0.00 0.00 0.00 89 1025.0
20260506082616 54 158 0.0 0.9 0.00 0.00 0.00 89 1025.0
20260506082114 54 225 0.0 0.0 0.00 0.00 0.00 89 1026.0
20260506081616 54 248 0.9 1.7 0.00 0.00 0.00 89 1025.0
20260506081114 55 270 0.9 1.7 0.00 0.00 0.00 89 1025.0
20260506080615 55 225 0.0 0.9 0.00 0.00 0.00 89 1025.0
20260506080114 55 270 0.0 0.9 0.00 0.00 0.00 89 1025.0
20260506073114 55 45 0.0 0.0 0.00 0.00 0.00 91 1025.0
20260506072614 54 315 0.0 0.0 0.00 0.00 0.00 90 1025.0
20260506072114 55 90 0.0 0.0 0.00 0.00 0.00 91 1025.0
20260506071614 55 113 0.0 0.0 0.00 0.00 0.00 90 1025.0
20260506071114 55 45 0.0 0.0 0.00 0.00 0.00 91 1025.0
20260506070615 55 338 0.0 0.0 0.00 0.00 0.00 91 1025.0
20260506070114 55 248 0.0 0.0 0.00 0.00 0.00 90 1025.0
20260506062115 55 90 0.0 0.0 0.00 0.00 0.00 91 1025.0
20260506061614 54 293 0.0 0.9 0.00 0.00 0.00 92 1025.0
20260506061114 54 135 0.0 0.0 0.00 0.00 0.00 92 1024.0
20260506060615 54 90 0.0 0.0 0.00 0.00 0.00 93 1025.0
20260506060115 54 113 0.0 0.0 0.00 0.00 0.00 94 1024.0
20260506051115 52 135 0.0 0.0 0.00 0.00 0.00 95 1024.0
20260506050615 52 135 0.0 0.0 0.00 0.00 0.00 95 1024.0
20260506050115 53 135 0.0 0.0 0.00 0.00 0.00 95 1024.0
20260506045114 53 158 0.0 0.0 0.00 0.00 0.00 94 1024.0
20260506044614 53 113 0.0 0.0 0.00 0.00 0.00 94 1024.0
20260506044114 53 113 0.0 0.0 0.00 0.00 0.00 94 1024.0
20260506043617 54 135 0.0 0.0 0.00 0.00 0.00 93 1024.0
20260506043114 54 180 0.0 0.0 0.00 0.00 0.00 93 1024.0
20260506042616 54 180 0.0 0.0 0.00 0.00 0.00 93 1023.0
20260506042114 54 203 0.0 0.0 0.00 0.00 0.00 93 1023.0
20260506041615 55 158 0.0 0.0 0.00 0.00 0.00 92 1023.0
20260506041114 55 158 0.0 0.0 0.00 0.00 0.00 91 1023.0
20260506040129 56 113 0.0 0.0 0.00 0.00 0.00 90 1023.0
20260506035614 56 90 0.0 0.0 0.00 0.00 0.00 90 1023.0
20260506035114 56 135 0.0 0.0 0.00 0.00 0.00 89 1023.0
20260506034614 57 135 0.0 0.0 0.00 0.00 0.00 88 1023.0
20260506034114 57 158 0.0 0.0 0.00 0.00 0.00 88 1023.0
20260506033614 57 225 0.0 0.0 0.00 0.00 0.00 88 1023.0
20260506033114 57 180 0.0 0.0 0.00 0.00 0.00 87 1023.0
20260506032615 58 113 0.0 0.0 0.00 0.00 0.00 86 1023.0
20260506032114 58 248 0.9 1.7 0.00 0.00 0.00 86 1023.0
20260506031616 59 225 0.9 1.7 0.00 0.00 0.00 85 1023.0
20260506031114 59 225 0.0 0.9 0.00 0.00 0.00 84 1023.0
20260506030614 59 248 0.9 1.7 0.00 0.00 0.00 83 1023.0
20260506030114 60 270 0.9 1.7 0.00 0.00 0.00 81 1023.0
20260506025614 61 225 0.9 1.7 0.00 0.00 0.00 79 1023.0
20260506025114 62 248 1.7 1.7 0.00 0.00 0.00 76 1023.0
20260506024615 63 113 0.9 1.7 0.00 0.00 0.00 74 1023.0
20260506024114 63 248 0.9 1.7 0.00 0.00 0.00 74 1023.0
20260506023614 64 270 0.9 1.7 0.00 0.00 0.00 74 1023.0
20260506023115 64 68 0.9 1.7 0.00 0.00 0.00 72 1023.0
20260506022615 64 180 0.9 1.7 0.00 0.00 0.00 72 1023.0
20260506022114 64 225 1.7 2.6 0.00 0.00 0.00 73 1023.0
20260506021614 64 248 1.7 2.6 0.00 0.00 0.00 72 1023.0
20260506021114 64 248 4.3 4.3 0.00 0.00 0.00 71 1023.0
20260506020615 65 293 0.9 1.7 0.00 0.00 0.00 70 1023.0
20260506020115 65 248 1.7 1.7 0.00 0.00 0.00 71 1023.0
20260506015614 65 270 1.7 1.7 0.00 0.00 0.00 70 1023.0
20260506015115 65 315 1.7 1.7 0.00 0.00 0.00 69 1023.0
20260506014614 65 248 0.9 1.7 0.00 0.00 0.00 70 1023.0
20260506014115 65 248 1.7 1.7 0.00 0.00 0.00 69 1023.0
20260506013614 65 225 0.0 1.7 0.00 0.00 0.00 70 1023.0
20260506013114 65 225 2.6 4.3 0.00 0.00 0.00 71 1023.0
20260506012614 65 270 3.5 4.3 0.00 0.00 0.00 71 1023.0
20260506012114 65 248 2.6 3.5 0.00 0.00 0.00 70 1023.0
20260506011614 65 270 1.7 2.6 0.00 0.00 0.00 70 1023.0
20260506011114 65 225 4.3 4.3 0.00 0.00 0.00 70 1023.0
20260506010615 65 270 2.6 3.5 0.00 0.00 0.00 70 1023.0
20260506010115 65 225 2.6 3.5 0.00 0.00 0.00 70 1023.0
20260506005615 65 248 2.6 4.3 0.00 0.00 0.00 69 1023.0
20260506005114 65 315 2.6 4.3 0.00 0.00 0.00 70 1023.0
20260506004614 65 270 3.5 4.3 0.00 0.00 0.00 70 1023.0
20260506004115 65 293 4.3 5.2 0.00 0.00 0.00 70 1023.0
20260506003614 66 293 2.6 3.5 0.00 0.00 0.00 68 1023.0
20260506003115 66 270 1.7 2.6 0.00 0.00 0.00 68 1023.0
20260506002615 66 270 2.6 4.3 0.00 0.00 0.00 70 1023.0
20260506002115 66 180 3.5 4.3 0.00 0.00 0.00 69 1023.0
20260506001615 65 270 4.3 5.2 0.00 0.00 0.00 69 1023.0
20260506001115 64 293 3.5 5.2 0.00 0.00 0.00 70 1023.0